• In Deutschland
  • Länderverzeichnis
  • Für 7 Tage
  • Wassertemperatur
  • Satellitenkarten
  • Wetterkarte
  • Widgets
  • user-avatar
    Anmelden

    Stündliche Wetter Fier

    Heute, 27 März, Montag

    Zeit Temperatur Niederschläge Wind Luftdruck Luftfeuchtigkeit
    00:00 +12°C° 0,1 mm 2 m/S 760 mmHg 90%
    01:00 +10°C° 0 mm 2 m/S 761 mmHg 90%
    02:00 +10°C° 0,1 mm 2 m/S 761 mmHg 89%
    03:00 +10°C° 0,1 mm 2 m/S 761 mmHg 88%
    04:00 +10°C° 0,1 mm 2 m/S 761 mmHg 87%
    05:00 +10°C° 0,2 mm 3 m/S 761 mmHg 83%
    06:00 +11°C° 0,2 mm 3 m/S 761 mmHg 80%
    07:00 +11°C° 0,2 mm 3 m/S 762 mmHg 77%
    08:00 +13°C° 0,5 mm 3 m/S 762 mmHg 69%
    09:00 +14°C° 0,5 mm 3 m/S 762 mmHg 62%
    10:00 +17°C° 0,5 mm 3 m/S 762 mmHg 55%
    11:00 +18°C° 0,6 mm 3 m/S 762 mmHg 54%
    12:00 +18°C° 0,6 mm 3 m/S 762 mmHg 53%
    13:00 +19°C° 0,6 mm 3 m/S 762 mmHg 52%
    14:00 +18°C° 0,4 mm 3 m/S 762 mmHg 55%
    15:00 +17°C° 0,4 mm 3 m/S 762 mmHg 58%
    16:00 +16°C° 0,4 mm 3 m/S 762 mmHg 61%
    17:00 +14°C° 0,1 mm 3 m/S 762 mmHg 66%
    18:00 +13°C° 0,1 mm 3 m/S 763 mmHg 71%
    19:00 +12°C° 0,1 mm 3 m/S 763 mmHg 75%
    20:00 +11°C° 0 mm 3 m/S 763 mmHg 76%
    21:00 +11°C° 0 mm 3 m/S 764 mmHg 77%
    22:00 +11°C° 0 mm 3 m/S 764 mmHg 77%
    23:00 +10°C° 0 mm 3 m/S 764 mmHg 78%

    Morgen, 28 März, Dienstag

    Zeit Temperatur Niederschläge Wind Luftdruck Luftfeuchtigkeit
    00:00 +10°C° 0 mm 3 m/S 764 mmHg 79%
    01:00 +10°C° 0 mm 3 m/S 765 mmHg 79%
    02:00 +10°C° 0 mm 3 m/S 764 mmHg 79%
    03:00 +9°C° 0 mm 3 m/S 764 mmHg 80%
    04:00 +9°C° 0 mm 3 m/S 764 mmHg 80%
    05:00 +10°C° 0 mm 3 m/S 764 mmHg 78%
    06:00 +10°C° 0 mm 3 m/S 764 mmHg 75%
    07:00 +11°C° 0 mm 3 m/S 764 mmHg 73%
    08:00 +12°C° 0 mm 3 m/S 765 mmHg 65%
    09:00 +14°C° 0 mm 3 m/S 765 mmHg 57%
    10:00 +17°C° 0 mm 2 m/S 765 mmHg 48%
    11:00 +18°C° 0 mm 3 m/S 765 mmHg 45%
    12:00 +19°C° 0 mm 3 m/S 764 mmHg 42%
    13:00 +20°C° 0 mm 3 m/S 764 mmHg 39%
    14:00 +20°C° 0 mm 4 m/S 764 mmHg 40%
    15:00 +19°C° 0 mm 4 m/S 764 mmHg 42%
    16:00 +19°C° 0 mm 5 m/S 764 mmHg 43%
    17:00 +15°C° 0 mm 5 m/S 764 mmHg 52%
    18:00 +13°C° 0 mm 4 m/S 764 mmHg 61%
    19:00 +11°C° 0 mm 4 m/S 765 mmHg 70%
    20:00 +11°C° 0 mm 4 m/S 765 mmHg 70%
    21:00 +11°C° 0 mm 3 m/S 765 mmHg 70%
    22:00 +10°C° 0 mm 3 m/S 766 mmHg 70%
    23:00 +10°C° 0 mm 3 m/S 766 mmHg 68%

    übermorgen, 29 März, Mittwoch

    Zeit Temperatur Niederschläge Wind Luftdruck Luftfeuchtigkeit
    00:00 +10°C° 0 mm 3 m/S 765 mmHg 67%
    01:00 +10°C° 0 mm 3 m/S 765 mmHg 65%
    02:00 +9°C° 0 mm 3 m/S 765 mmHg 64%
    03:00 +9°C° 0 mm 3 m/S 765 mmHg 62%
    04:00 +9°C° 0 mm 3 m/S 765 mmHg 60%
    05:00 +10°C° 0 mm 3 m/S 765 mmHg 58%
    06:00 +11°C° 0 mm 3 m/S 765 mmHg 57%
    07:00 +12°C° 0 mm 3 m/S 766 mmHg 55%
    08:00 +15°C° 0 mm 2 m/S 765 mmHg 48%
    09:00 +18°C° 0 mm 2 m/S 765 mmHg 41%
    10:00 +20°C° 0 mm 2 m/S 765 mmHg 35%
    11:00 +21°C° 0 mm 3 m/S 765 mmHg 34%
    12:00 +22°C° 0 mm 3 m/S 765 mmHg 32%
    13:00 +22°C° 0 mm 4 m/S 764 mmHg 31%
    14:00 +22°C° 0 mm 4 m/S 764 mmHg 34%
    15:00 +21°C° 0 mm 5 m/S 764 mmHg 37%
    16:00 +20°C° 0 mm 5 m/S 764 mmHg 40%
    17:00 +17°C° 0 mm 5 m/S 764 mmHg 50%
    18:00 +15°C° 0 mm 4 m/S 764 mmHg 61%
    19:00 +12°C° 0 mm 4 m/S 764 mmHg 71%
    20:00 +12°C° 0 mm 3 m/S 764 mmHg 70%
    21:00 +12°C° 0 mm 3 m/S 765 mmHg 69%
    22:00 +11°C° 0 mm 3 m/S 765 mmHg 68%
    23:00 +11°C° 0 mm 3 m/S 765 mmHg 66%

    30 März, Donnerstag

    Zeit Temperatur Niederschläge Wind Luftdruck Luftfeuchtigkeit
    00:00 +11°C° 0 mm 3 m/S 765 mmHg 65%
    01:00 +11°C° 0 mm 3 m/S 765 mmHg 63%
    02:00 +11°C° 0 mm 3 m/S 765 mmHg 63%
    03:00 +11°C° 0 mm 3 m/S 764 mmHg 63%
    04:00 +10°C° 0 mm 3 m/S 764 mmHg 62%
    05:00 +12°C° 0 mm 3 m/S 764 mmHg 60%
    06:00 +13°C° 0 mm 3 m/S 765 mmHg 58%
    07:00 +14°C° 0 mm 3 m/S 765 mmHg 56%
    08:00 +17°C° 0 mm 3 m/S 765 mmHg 50%
    09:00 +19°C° 0 mm 3 m/S 765 mmHg 44%
    10:00 +21°C° 0 mm 3 m/S 765 mmHg 37%
    11:00 +22°C° 0 mm 4 m/S 764 mmHg 36%
    12:00 +23°C° 0 mm 4 m/S 764 mmHg 35%
    13:00 +25°C° 0 mm 5 m/S 764 mmHg 33%
    14:00 +23°C° 0 mm 5 m/S 763 mmHg 36%
    15:00 +23°C° 0 mm 5 m/S 763 mmHg 39%
    16:00 +22°C° 0 mm 6 m/S 763 mmHg 41%
    17:00 +20°C° 0 mm 6 m/S 763 mmHg 51%
    18:00 +17°C° 0 mm 5 m/S 764 mmHg 61%
    19:00 +14°C° 0 mm 5 m/S 764 mmHg 70%
    20:00 +14°C° 0 mm 5 m/S 764 mmHg 70%
    21:00 +14°C° 0 mm 4 m/S 765 mmHg 70%
    22:00 +14°C° 0 mm 4 m/S 765 mmHg 70%
    23:00 +14°C° 0 mm 3 m/S 765 mmHg 70%

    31 März, Freitag

    Zeit Temperatur Niederschläge Wind Luftdruck Luftfeuchtigkeit
    00:00 +13°C° 0 mm 3 m/S 765 mmHg 69%
    01:00 +13°C° 0 mm 3 m/S 765 mmHg 69%
    02:00 +13°C° 0 mm 3 m/S 765 mmHg 70%
    03:00 +13°C° 0 mm 3 m/S 765 mmHg 71%
    04:00 +12°C° 0 mm 3 m/S 765 mmHg 71%
    05:00 +13°C° 0 mm 3 m/S 765 mmHg 70%
    06:00 +14°C° 0 mm 3 m/S 765 mmHg 68%
    07:00 +16°C° 0 mm 3 m/S 765 mmHg 66%
    08:00 +18°C° 0 mm 3 m/S 765 mmHg 58%
    09:00 +20°C° 0 mm 2 m/S 765 mmHg 50%
    10:00 +23°C° 0 mm 2 m/S 765 mmHg 43%
    11:00 +24°C° 0 mm 2 m/S 765 mmHg 41%
    12:00 +24°C° 0 mm 2 m/S 765 mmHg 39%
    13:00 +25°C° 0 mm 3 m/S 764 mmHg 37%
    14:00 +24°C° 0 mm 3 m/S 764 mmHg 40%
    15:00 +24°C° 0 mm 3 m/S 764 mmHg 44%
    16:00 +22°C° 0 mm 3 m/S 764 mmHg 47%
    17:00 +20°C° 0 mm 3 m/S 764 mmHg 56%
    18:00 +17°C° 0 mm 2 m/S 764 mmHg 65%
    19:00 +15°C° 0 mm 1 m/S 764 mmHg 74%
    20:00 +15°C° 0 mm 1 m/S 764 mmHg 75%
    21:00 +14°C° 0 mm 1 m/S 764 mmHg 76%
    22:00 +13°C° 0 mm 0 m/S 764 mmHg 77%
    23:00 +14°C° 0 mm 1 m/S 764 mmHg 77%

    1 April, Samstag

    Zeit Temperatur Niederschläge Wind Luftdruck Luftfeuchtigkeit
    00:00 +14°C° 0 mm 1 m/S 764 mmHg 77%
    01:00 +14°C° 0 mm 1 m/S 764 mmHg 76%
    02:00 +14°C° 0 mm 1 m/S 763 mmHg 76%
    03:00 +14°C° 0 mm 1 m/S 763 mmHg 75%
    04:00 +14°C° 0 mm 1 m/S 763 mmHg 74%
    05:00 +14°C° 0 mm 2 m/S 763 mmHg 72%
    06:00 +15°C° 0 mm 2 m/S 763 mmHg 70%
    07:00 +16°C° 0 mm 2 m/S 763 mmHg 67%
    08:00 +18°C° 0 mm 3 m/S 763 mmHg 61%
    09:00 +20°C° 0 mm 3 m/S 763 mmHg 55%
    10:00 +22°C° 0 mm 3 m/S 763 mmHg 49%
    11:00 +22°C° 0 mm 4 m/S 762 mmHg 48%
    12:00 +22°C° 0 mm 5 m/S 762 mmHg 47%
    13:00 +23°C° 0 mm 5 m/S 762 mmHg 46%
    14:00 +22°C° 0,2 mm 5 m/S 761 mmHg 50%
    15:00 +21°C° 0,2 mm 5 m/S 761 mmHg 53%
    16:00 +20°C° 0,2 mm 5 m/S 761 mmHg 56%
    17:00 +19°C° 0,1 mm 5 m/S 761 mmHg 63%
    18:00 +17°C° 0,1 mm 4 m/S 761 mmHg 70%
    19:00 +14°C° 0,1 mm 4 m/S 761 mmHg 77%
    20:00 +14°C° 0 mm 4 m/S 761 mmHg 78%
    21:00 +14°C° 0 mm 4 m/S 761 mmHg 79%
    22:00 +13°C° 0 mm 4 m/S 761 mmHg 79%
    23:00 +13°C° 0 mm 4 m/S 761 mmHg 80%
    Mehr zeigen